Voltar ao catálogo

FENGYUN 1C DEB

AtivoSSO
NORAD 29798·DEBRIS·🇨🇳 China

Lançado May 10, 1999 de Taiyuan Satellite Launch Center

Loading…

Próximas Passagens (próximas 24 horas)

TLE

AtualizadoSource: Space-Track

Época: Sep 14, 2026, 03:39 UTC

1 29798U 99025CQ  26257.15234618  .00001299  00000-0  86185-3 0  9994
2 29798  99.2933 330.3865 0106563 238.4697 149.9089 14.00566724997796

Acompanhe FENGYUN 1C DEB em tempo real com AllMySat

Download on the App Store